Check out our new BloomSky Weather System.

Active alerts

Galveston, TX
  Details for Galveston, TX Coastal Flood Advisory  +3 additional alerts
Houston, TX
  Details for Houston, TX Flash Flood Watch
Fort Bend, TX
  Details for Fort Bend, TX Flash Flood Watch


Thunder radar  blitzortung!


Rain radar more information rain snow radar


Visit our other weather sites:

Template documentation
and downloads

And another site



Weather Underground History page Text

Daily Summary for May 16, 2017 Units:  English    Metric   Both
« Previous Day
Next Day »
Daily Weekly Monthly Yearly Custom
  High: Low: Average:
Temperature: TemperatureF °F 69.6 °F 78.2 °F
Dew Point: DewpointF °F 64.8 °F 67.7 °F
Humidity: Humidity % 49 % 72 %
Wind Speed: WindSpeedMPH mph 0.0 mph 6.1 mph
Wind Gust: WindSpeedGustMPH mph - -
Wind:- - SE
Pressure: PressureIn in 29.77 in -
Precipitation: 0.00 in    
Historical Graphs
 
 
Tabular Data for May 16, 2017
Time Temperature Dew Point Pressure Wind Wind Speed Wind Gust Humidity Rainfall Rate (Hourly)
TemperatureF °F DewpointF °F PressureIn in Calm     Humidity % HourlyPrecipIn in
00:02 73.2 °F 68.7 °F 29.91 in SE 1.0 mph 3.0 mph 86 % 0.00 in
00:07 73.2 °F 68.7 °F 29.91 in East 3.0 mph 4.0 mph 86 % 0.00 in
00:12 73.0 °F 68.5 °F 29.91 in ESE 2.0 mph 4.0 mph 86 % 0.00 in
00:17 73.0 °F 68.9 °F 29.91 in ESE 1.0 mph 4.0 mph 87 % 0.00 in
00:22 73.0 °F 68.9 °F 29.91 in SE 2.0 mph 5.0 mph 87 % 0.00 in
00:27 73.0 °F 68.9 °F 29.91 in SE 1.0 mph 5.0 mph 87 % 0.00 in
00:32 73.0 °F 68.9 °F 29.90 in ESE 1.0 mph 5.0 mph 87 % 0.00 in
00:37 73.0 °F 68.9 °F 29.90 in SSE 2.0 mph 5.0 mph 87 % 0.00 in
00:39 73.0 °F 68.9 °F 29.90 in SE 1.0 mph 5.0 mph 87 % 0.00 in
00:44 72.9 °F 68.7 °F 29.90 in SE 1.0 mph 4.0 mph 87 % 0.00 in
00:49 72.9 °F 68.7 °F 29.90 in SE 1.0 mph 4.0 mph 87 % 0.00 in
00:54 72.7 °F 68.9 °F 29.90 in SE 1.0 mph 3.0 mph 88 % 0.00 in
00:59 72.7 °F 68.9 °F 29.90 in SE 2.0 mph 3.0 mph 88 % 0.00 in
01:00 72.7 °F 68.9 °F 29.90 in East 2.0 mph 3.0 mph 88 % 0.00 in
01:05 72.7 °F 68.9 °F 29.90 in ESE 1.0 mph 4.0 mph 88 % 0.00 in
01:10 72.7 °F 68.9 °F 29.90 in Calm   4.0 mph 88 % 0.00 in
01:15 72.3 °F 68.5 °F 29.90 in Calm   4.0 mph 88 % 0.00 in
01:20 72.1 °F 68.7 °F 29.90 in SE 1.0 mph 3.0 mph 89 % 0.00 in
01:25 72.1 °F 68.7 °F 29.90 in Calm   3.0 mph 89 % 0.00 in
01:30 72.1 °F 68.7 °F 29.90 in SE 1.0 mph 3.0 mph 89 % 0.00 in
01:35 72.1 °F 69.1 °F 29.90 in South 2.0 mph 3.0 mph 90 % 0.00 in
01:40 72.3 °F 69.3 °F 29.90 in SE 2.0 mph 3.0 mph 90 % 0.00 in
01:45 72.3 °F 69.3 °F 29.89 in SSE 1.0 mph 3.0 mph 90 % 0.00 in
01:50 72.5 °F 69.1 °F 29.89 in South 1.0 mph 4.0 mph 89 % 0.00 in
01:55 72.5 °F 69.4 °F 29.89 in SE 3.0 mph 5.0 mph 90 % 0.00 in
02:00 72.7 °F 69.3 °F 29.88 in SSE 2.0 mph 5.0 mph 89 % 0.00 in
02:05 72.7 °F 69.3 °F 29.88 in South 3.0 mph 5.0 mph 89 % 0.00 in
02:10 72.9 °F 69.4 °F 29.87 in SSE 2.0 mph 7.0 mph 89 % 0.00 in
02:15 72.9 °F 69.4 °F 29.87 in SSE 7.0 mph 7.0 mph 89 % 0.00 in
02:20 72.9 °F 69.4 °F 29.87 in ESE 6.0 mph 9.0 mph 89 % 0.00 in
02:25 72.9 °F 69.4 °F 29.87 in SE 3.0 mph 11.0 mph 89 % 0.00 in
02:30 72.9 °F 69.4 °F 29.87 in SSE 5.0 mph 11.0 mph 89 % 0.00 in
02:35 72.9 °F 69.4 °F 29.87 in SSE 3.0 mph 11.0 mph 89 % 0.00 in
02:40 72.9 °F 69.4 °F 29.87 in SE 6.0 mph 6.0 mph 89 % 0.00 in
02:45 72.7 °F 69.3 °F 29.87 in SSE 2.0 mph 6.0 mph 89 % 0.00 in
02:50 72.7 °F 69.3 °F 29.87 in ESE 3.0 mph 6.0 mph 89 % 0.00 in
02:55 72.7 °F 69.3 °F 29.87 in Calm   6.0 mph 89 % 0.00 in
03:00 72.3 °F 68.9 °F 29.86 in ESE 2.0 mph 4.0 mph 89 % 0.00 in
03:05 72.3 °F 68.9 °F 29.86 in SSE 1.0 mph 5.0 mph 89 % 0.00 in
03:10 72.3 °F 68.9 °F 29.86 in SSE 2.0 mph 5.0 mph 89 % 0.00 in
03:15 72.1 °F 68.7 °F 29.86 in SE 2.0 mph 5.0 mph 89 % 0.00 in
03:20 72.1 °F 68.7 °F 29.86 in ESE 2.0 mph 5.0 mph 89 % 0.00 in
03:25 72.1 °F 68.7 °F 29.86 in SE 2.0 mph 5.0 mph 89 % 0.00 in
03:30 72.1 °F 69.1 °F 29.86 in SSE 2.0 mph 6.0 mph 90 % 0.00 in
03:35 72.0 °F 68.9 °F 29.86 in SE 1.0 mph 6.0 mph 90 % 0.00 in
03:40 72.0 °F 68.5 °F 29.86 in ESE 2.0 mph 6.0 mph 89 % 0.00 in
03:41 72.0 °F 68.5 °F 29.86 in ESE 1.0 mph 6.0 mph 89 % 0.00 in
03:46 71.8 °F 68.7 °F 29.86 in SE 3.0 mph 4.0 mph 90 % 0.00 in
03:51 71.8 °F 68.7 °F 29.86 in SE 1.0 mph 3.0 mph 90 % 0.00 in
03:56 71.8 °F 68.7 °F 29.86 in Calm   4.0 mph 90 % 0.00 in
04:01 71.4 °F 68.4 °F 29.86 in SE 2.0 mph 4.0 mph 90 % 0.00 in
04:06 71.4 °F 68.4 °F 29.86 in SE 1.0 mph 4.0 mph 90 % 0.00 in
04:11 71.4 °F 68.4 °F 29.86 in SE 2.0 mph 4.0 mph 90 % 0.00 in
04:16 71.4 °F 68.4 °F 29.86 in SSE 2.0 mph 5.0 mph 90 % 0.00 in
04:21 71.4 °F 68.4 °F 29.86 in SE 1.0 mph 5.0 mph 90 % 0.00 in
04:26 71.4 °F 68.4 °F 29.86 in Calm   5.0 mph 90 % 0.00 in
04:31 71.2 °F 68.2 °F 29.86 in Calm   4.0 mph 90 % 0.00 in
04:36 71.2 °F 68.2 °F 29.86 in Calm   4.0 mph 90 % 0.00 in
04:41 71.2 °F 68.5 °F 29.86 in ESE 2.0 mph 5.0 mph 91 % 0.00 in
04:46 71.4 °F 68.7 °F 29.86 in ESE 1.0 mph 5.0 mph 91 % 0.00 in
04:51 71.4 °F 68.4 °F 29.86 in Calm   5.0 mph 90 % 0.00 in
04:56 71.4 °F 68.4 °F 29.86 in SE 1.0 mph 4.0 mph 90 % 0.00 in
05:01 71.2 °F 68.2 °F 29.86 in ESE 2.0 mph 4.0 mph 90 % 0.00 in
05:06 71.2 °F 68.2 °F 29.86 in ESE 1.0 mph 4.0 mph 90 % 0.00 in
05:11 71.2 °F 68.2 °F 29.86 in ESE 2.0 mph 6.0 mph 90 % 0.00 in
05:16 71.2 °F 68.2 °F 29.86 in East 3.0 mph 6.0 mph 90 % 0.00 in
05:21 71.1 °F 68.0 °F 29.86 in Calm   6.0 mph 90 % 0.00 in
05:26 71.1 °F 68.0 °F 29.86 in Calm   4.0 mph 90 % 0.00 in
05:31 70.9 °F 67.8 °F 29.86 in Calm   3.0 mph 90 % 0.00 in
05:36 70.9 °F 67.8 °F 29.86 in Calm   2.0 mph 90 % 0.00 in
05:41 70.9 °F 68.2 °F 29.86 in Calm   2.0 mph 91 % 0.00 in
05:46 70.7 °F 68.0 °F 29.86 in SE 1.0 mph 2.0 mph 91 % 0.00 in
05:51 70.7 °F 68.0 °F 29.86 in Calm   2.0 mph 91 % 0.00 in
05:56 70.5 °F 67.8 °F 29.86 in ESE 1.0 mph 2.0 mph 91 % 0.00 in
06:01 70.5 °F 67.8 °F 29.86 in Calm   2.0 mph 91 % 0.00 in
06:07 70.3 °F 67.6 °F 29.86 in Calm   1.0 mph 91 % 0.00 in
06:12 70.2 °F 67.5 °F 29.86 in Calm   1.0 mph 91 % 0.00 in
06:17 70.2 °F 67.5 °F 29.87 in Calm   1.0 mph 91 % 0.00 in
06:22 70.0 °F 67.5 °F 29.87 in Calm   1.0 mph 92 % 0.00 in
06:27 70.0 °F 67.5 °F 29.87 in SE 1.0 mph 1.0 mph 92 % 0.00 in
06:32 69.8 °F 67.3 °F 29.88 in Calm   1.0 mph 92 % 0.00 in
06:37 69.6 °F 67.3 °F 29.88 in Calm   1.0 mph 92 % 0.00 in
06:42 69.6 °F 67.3 °F 29.88 in Calm   1.0 mph 92 % 0.00 in
06:47 70.0 °F 67.8 °F 29.88 in Calm   2.0 mph 93 % 0.00 in
06:52 70.0 °F 67.5 °F 29.88 in Calm   2.0 mph 92 % 0.00 in
06:57 70.0 °F 67.8 °F 29.88 in SE 1.0 mph 2.0 mph 93 % 0.00 in
07:02 70.2 °F 68.0 °F 29.88 in Calm   3.0 mph 93 % 0.00 in
07:07 70.2 °F 68.0 °F 29.88 in SSE 1.0 mph 3.0 mph 93 % 0.00 in
07:12 70.5 °F 68.4 °F 29.88 in ESE 2.0 mph 3.0 mph 93 % 0.00 in
07:17 70.9 °F 68.4 °F 29.88 in East 1.0 mph 5.0 mph 92 % 0.00 in
07:22 71.2 °F 68.7 °F 29.88 in SE 3.0 mph 5.0 mph 92 % 0.00 in
07:27 72.0 °F 69.3 °F 29.88 in SSE 2.0 mph 5.0 mph 91 % 0.00 in
07:32 72.3 °F 68.9 °F 29.89 in SE 1.0 mph 7.0 mph 89 % 0.00 in
07:37 72.9 °F 69.1 °F 29.89 in SE 8.0 mph 9.0 mph 88 % 0.00 in
07:42 73.6 °F 69.1 °F 29.89 in South 2.0 mph 9.0 mph 86 % 0.00 in
07:47 74.1 °F 68.9 °F 29.89 in ESE 5.0 mph 9.0 mph 84 % 0.00 in
07:52 74.7 °F 68.7 °F 29.89 in ESE 3.0 mph 10.0 mph 82 % 0.00 in
07:57 74.8 °F 68.5 °F 29.89 in ESE 7.0 mph 10.0 mph 81 % 0.00 in
08:02 75.4 °F 68.7 °F 29.89 in SE 8.0 mph 13.0 mph 80 % 0.00 in
08:07 75.6 °F 68.5 °F 29.89 in ESE 5.0 mph 13.0 mph 79 % 0.00 in
08:12 75.9 °F 68.9 °F 29.89 in ESE 9.0 mph 13.0 mph 79 % 0.00 in
08:17 76.1 °F 68.7 °F 29.89 in ESE 8.0 mph 12.0 mph 78 % 0.00 in
08:22 76.5 °F 68.7 °F 29.89 in SSE 9.0 mph 12.0 mph 77 % 0.00 in
08:27 76.6 °F 68.5 °F 29.90 in ESE 7.0 mph 14.0 mph 76 % 0.00 in
08:32 77.0 °F 69.3 °F 29.90 in ESE 10.0 mph 14.0 mph 77 % 0.00 in
08:37 77.5 °F 68.9 °F 29.90 in South 7.0 mph 14.0 mph 75 % 0.00 in
08:42 77.5 °F 68.5 °F 29.90 in SE 6.0 mph 14.0 mph 74 % 0.00 in
08:47 77.7 °F 68.7 °F 29.90 in SE 7.0 mph 14.0 mph 74 % 0.00 in
08:52 77.9 °F 68.5 °F 29.90 in ESE 10.0 mph 16.0 mph 73 % 0.00 in
08:57 78.1 °F 69.1 °F 29.90 in SSE 8.0 mph 16.0 mph 74 % 0.00 in
09:02 78.4 °F 69.4 °F 29.90 in SE 8.0 mph 16.0 mph 74 % 0.00 in
09:07 79.0 °F 68.7 °F 29.91 in East 9.0 mph 15.0 mph 71 % 0.00 in
09:12 79.0 °F 68.4 °F 29.91 in SE 4.0 mph 15.0 mph 70 % 0.00 in
09:17 79.0 °F 68.0 °F 29.91 in SE 11.0 mph 15.0 mph 69 % 0.00 in
09:22 78.6 °F 68.0 °F 29.91 in SSE 8.0 mph 17.0 mph 70 % 0.00 in
09:27 78.6 °F 68.0 °F 29.91 in South 7.0 mph 17.0 mph 70 % 0.00 in
09:32 79.0 °F 68.0 °F 29.91 in East 10.0 mph 17.0 mph 69 % 0.00 in
09:37 79.3 °F 68.4 °F 29.91 in SSE 11.0 mph 15.0 mph 69 % 0.00 in
09:42 79.7 °F 68.2 °F 29.91 in SSW 5.0 mph 15.0 mph 68 % 0.00 in
09:47 79.9 °F 68.0 °F 29.91 in SE 10.0 mph 13.0 mph 67 % 0.00 in
09:52 80.1 °F 68.2 °F 29.91 in SE 8.0 mph 16.0 mph 67 % 0.00 in
09:57 80.2 °F 67.8 °F 29.91 in SE 9.0 mph 16.0 mph 66 % 0.00 in
10:02 80.4 °F 68.0 °F 29.91 in South 6.0 mph 16.0 mph 66 % 0.00 in
10:07 80.6 °F 68.2 °F 29.91 in East 14.0 mph 18.0 mph 66 % 0.00 in
10:12 80.4 °F 68.5 °F 29.91 in SSE 10.0 mph 18.0 mph 67 % 0.00 in
10:17 80.2 °F 68.4 °F 29.92 in ESE 7.0 mph 18.0 mph 67 % 0.00 in
10:22 80.8 °F 68.4 °F 29.91 in SE 10.0 mph 17.0 mph 66 % 0.00 in
10:27 81.0 °F 68.5 °F 29.91 in ESE 6.0 mph 17.0 mph 66 % 0.00 in
10:32 81.0 °F 67.6 °F 29.91 in SSE 9.0 mph 14.0 mph 64 % 0.00 in
10:37 81.0 °F 68.0 °F 29.91 in SSW 3.0 mph 16.0 mph 65 % 0.00 in
10:42 81.5 °F 68.2 °F 29.91 in South 14.0 mph 16.0 mph 64 % 0.00 in
10:47 81.3 °F 67.1 °F 29.91 in SSW 7.0 mph 16.0 mph 62 % 0.00 in
10:52 81.1 °F 66.9 °F 29.91 in South 5.0 mph 15.0 mph 62 % 0.00 in
10:57 81.1 °F 67.3 °F 29.91 in SE 6.0 mph 15.0 mph 63 % 0.00 in
11:02 81.0 °F 66.7 °F 29.91 in South 5.0 mph 16.0 mph 62 % 0.00 in
11:07 81.0 °F 67.1 °F 29.91 in SSE 8.0 mph 16.0 mph 63 % 0.00 in
11:12 81.7 °F 67.5 °F 29.91 in SSE 7.0 mph 16.0 mph 62 % 0.00 in
11:17 81.3 °F 66.6 °F 29.91 in South 5.0 mph 13.0 mph 61 % 0.00 in
11:22 81.9 °F 66.6 °F 29.91 in South 12.0 mph 12.0 mph 60 % 0.00 in
11:27 82.2 °F 66.4 °F 29.91 in ESE 7.0 mph 14.0 mph 59 % 0.00 in
11:32 82.8 °F 66.6 °F 29.91 in ESE 6.0 mph 16.0 mph 58 % 0.00 in
11:37 83.5 °F 66.2 °F 29.91 in SSE 8.0 mph 16.0 mph 56 % 0.00 in
11:42 83.7 °F 65.3 °F 29.91 in East 7.0 mph 16.0 mph 54 % 0.00 in
11:47 84.0 °F 65.1 °F 29.91 in SSE 9.0 mph 16.0 mph 53 % 0.00 in
11:52 84.0 °F 65.7 °F 29.90 in SE 8.0 mph 17.0 mph 54 % 0.00 in
11:57 84.0 °F 66.2 °F 29.90 in SE 5.0 mph 17.0 mph 55 % 0.00 in
12:02 84.6 °F 66.0 °F 29.89 in SE 6.0 mph 17.0 mph 54 % 0.00 in
12:07 84.9 °F 65.8 °F 29.90 in South 6.0 mph 16.0 mph 53 % 0.00 in
12:12 85.3 °F 66.7 °F 29.89 in SE 10.0 mph 15.0 mph 54 % 0.00 in
12:17 85.3 °F 66.7 °F 29.89 in SSE 5.0 mph 16.0 mph 54 % 0.00 in
12:22 85.3 °F 66.7 °F 29.89 in South 10.0 mph 16.0 mph 54 % 0.00 in
12:27 85.3 °F 66.7 °F 29.89 in SW 9.0 mph 17.0 mph 54 % 0.00 in
12:32 85.1 °F 66.6 °F 29.89 in South 15.0 mph 17.0 mph 54 % 0.00 in
12:37 85.3 °F 65.7 °F 29.88 in SSE 5.0 mph 17.0 mph 52 % 0.00 in
12:42 85.6 °F 67.1 °F 29.88 in WSW 10.0 mph 16.0 mph 54 % 0.00 in
12:47 85.5 °F 66.4 °F 29.88 in SE 11.0 mph 16.0 mph 53 % 0.00 in
12:52 85.6 °F 66.6 °F 29.88 in SE 6.0 mph 16.0 mph 53 % 0.00 in
12:57 85.8 °F 65.7 °F 29.88 in SSE 7.0 mph 17.0 mph 51 % 0.00 in
13:02 86.2 °F 65.3 °F 29.88 in South 4.0 mph 17.0 mph 50 % 0.00 in
13:04 86.4 °F 66.0 °F 29.87 in South 10.0 mph 17.0 mph 51 % 0.00 in
13:09 86.7 °F 65.3 °F 29.87 in SSW 8.0 mph 17.0 mph 49 % 0.00 in
13:14 86.5 °F 65.1 °F 29.86 in SE 7.0 mph 17.0 mph 49 % 0.00 in
13:19 86.2 °F 64.8 °F 29.86 in ESE 6.0 mph 19.0 mph 49 % 0.00 in
13:24 86.7 °F 65.8 °F 29.86 in SE 12.0 mph 21.0 mph 50 % 0.00 in
13:29 86.5 °F 65.1 °F 29.86 in SE 9.0 mph 21.0 mph 49 % 0.00 in
13:34 86.5 °F 65.7 °F 29.86 in SSE 11.0 mph 21.0 mph 50 % 0.00 in
13:39 86.5 °F 66.7 °F 29.86 in SSE 7.0 mph 16.0 mph 52 % 0.00 in
13:44 86.7 °F 66.4 °F 29.86 in ESE 8.0 mph 16.0 mph 51 % 0.00 in
13:49 86.9 °F 66.6 °F 29.86 in SE 8.0 mph 16.0 mph 51 % 0.00 in
13:54 86.5 °F 66.2 °F 29.86 in ESE 9.0 mph 23.0 mph 51 % 0.00 in
13:59 86.4 °F 66.0 °F 29.85 in SE 9.0 mph 23.0 mph 51 % 0.00 in
14:04 86.7 °F 66.4 °F 29.85 in SE 10.0 mph 23.0 mph 51 % 0.00 in
14:09 87.3 °F 66.9 °F 29.85 in ESE 9.0 mph 19.0 mph 51 % 0.00 in
14:14 87.3 °F 65.8 °F 29.85 in SSW 7.0 mph 17.0 mph 49 % 0.00 in
14:19 87.4 °F 67.6 °F 29.85 in SE 9.0 mph 17.0 mph 52 % 0.00 in
14:24 87.3 °F 66.9 °F 29.84 in SE 6.0 mph 17.0 mph 51 % 0.00 in
14:29 87.3 °F 67.5 °F 29.84 in South 8.0 mph 17.0 mph 52 % 0.00 in
14:34 87.4 °F 67.6 °F 29.84 in East 11.0 mph 17.0 mph 52 % 0.00 in
14:39 87.4 °F 66.6 °F 29.83 in SE 8.0 mph 16.0 mph 50 % 0.00 in
14:44 87.4 °F 67.6 °F 29.84 in SSE 8.0 mph 20.0 mph 52 % 0.00 in
14:49 87.4 °F 67.6 °F 29.83 in ESE 11.0 mph 20.0 mph 52 % 0.00 in
14:54 87.8 °F 68.0 °F 29.83 in SSE 11.0 mph 20.0 mph 52 % 0.00 in
14:59 87.3 °F 67.5 °F 29.83 in SE 11.0 mph 18.0 mph 52 % 0.00 in
15:04 87.3 °F 68.0 °F 29.83 in SSE 7.0 mph 18.0 mph 53 % 0.00 in
15:09 87.4 °F 67.6 °F 29.82 in SW 8.0 mph 18.0 mph 52 % 0.00 in
15:14 88.2 °F 68.9 °F 29.82 in ESE 4.0 mph 17.0 mph 53 % 0.00 in
15:19 87.4 °F 68.2 °F 29.82 in SSE 13.0 mph 16.0 mph 53 % 0.00 in
15:24 86.9 °F 68.2 °F 29.82 in ESE 12.0 mph 19.0 mph 54 % 0.00 in
15:29 86.5 °F 68.0 °F 29.82 in SSE 8.0 mph 19.0 mph 54 % 0.00 in
15:35 86.7 °F 67.5 °F 29.81 in ESE 16.0 mph 19.0 mph 53 % 0.00 in
15:40 87.3 °F 68.5 °F 29.81 in SSW 16.0 mph 19.0 mph 54 % 0.00 in
15:45 87.1 °F 68.4 °F 29.81 in South 13.0 mph 19.0 mph 54 % 0.00 in
15:50 86.4 °F 68.7 °F 29.81 in South 6.0 mph 19.0 mph 56 % 0.00 in
15:55 86.7 °F 69.1 °F 29.81 in South 9.0 mph 19.0 mph 56 % 0.00 in
16:00 86.4 °F 68.4 °F 29.81 in SSE 6.0 mph 17.0 mph 55 % 0.00 in
16:05 86.7 °F 68.5 °F 29.80 in East 15.0 mph 15.0 mph 55 % 0.00 in
16:10 87.3 °F 67.5 °F 29.80 in SE 10.0 mph 16.0 mph 52 % 0.00 in
16:15 86.7 °F 68.0 °F 29.80 in SSW 14.0 mph 18.0 mph 54 % 0.00 in
16:20 86.7 °F 68.5 °F 29.80 in SSE 11.0 mph 18.0 mph 55 % 0.00 in
16:25 86.7 °F 67.5 °F 29.80 in SSE 6.0 mph 18.0 mph 53 % 0.00 in
16:30 87.1 °F 67.3 °F 29.80 in SSE 4.0 mph 17.0 mph 52 % 0.00 in
16:35 86.9 °F 67.1 °F 29.80 in SE 9.0 mph 18.0 mph 52 % 0.00 in
16:40 86.5 °F 67.5 °F 29.80 in SE 7.0 mph 18.0 mph 53 % 0.00 in
16:45 86.5 °F 68.0 °F 29.80 in South 7.0 mph 18.0 mph 54 % 0.00 in
16:50 86.2 °F 67.1 °F 29.80 in SE 9.0 mph 17.0 mph 53 % 0.00 in
16:55 86.4 °F 67.3 °F 29.80 in SE 10.0 mph 16.0 mph 53 % 0.00 in
17:00 86.5 °F 68.0 °F 29.80 in SE 8.0 mph 17.0 mph 54 % 0.00 in
17:05 86.7 °F 67.5 °F 29.79 in ESE 9.0 mph 18.0 mph 53 % 0.00 in
17:10 86.5 °F 68.0 °F 29.80 in SSE 11.0 mph 19.0 mph 54 % 0.00 in
17:15 86.2 °F 67.1 °F 29.79 in South 10.0 mph 19.0 mph 53 % 0.00 in
17:20 85.6 °F 66.6 °F 29.79 in ESE 8.0 mph 21.0 mph 53 % 0.00 in
17:25 85.6 °F 66.6 °F 29.80 in SSE 9.0 mph 21.0 mph 53 % 0.00 in
17:28 85.5 °F 66.9 °F 29.79 in SSE 5.0 mph 21.0 mph 54 % 0.00 in
17:33 85.5 °F 66.4 °F 29.79 in SSE 10.0 mph 21.0 mph 53 % 0.00 in
17:38 85.3 °F 66.2 °F 29.79 in SE 16.0 mph 18.0 mph 53 % 0.00 in
17:43 84.9 °F 66.4 °F 29.79 in ESE 12.0 mph 19.0 mph 54 % 0.00 in
17:48 85.3 °F 66.2 °F 29.79 in SSE 8.0 mph 19.0 mph 53 % 0.00 in
17:53 85.3 °F 66.2 °F 29.79 in South 7.0 mph 19.0 mph 53 % 0.00 in
17:58 85.1 °F 66.6 °F 29.78 in SE 9.0 mph 19.0 mph 54 % 0.00 in
18:03 85.1 °F 66.6 °F 29.78 in SSW 12.0 mph 19.0 mph 54 % 0.00 in
18:08 84.9 °F 66.9 °F 29.78 in ESE 16.0 mph 19.0 mph 55 % 0.00 in
18:13 84.4 °F 66.9 °F 29.78 in ESE 8.0 mph 20.0 mph 56 % 0.00 in
18:18 84.6 °F 67.6 °F 29.78 in SE 11.0 mph 20.0 mph 57 % 0.00 in
18:23 84.4 °F 68.0 °F 29.78 in ESE 8.0 mph 20.0 mph 58 % 0.00 in
18:28 83.8 °F 67.5 °F 29.78 in SSE 8.0 mph 18.0 mph 58 % 0.00 in
18:33 83.8 °F 67.5 °F 29.78 in ESE 10.0 mph 19.0 mph 58 % 0.00 in
18:38 83.3 °F 67.5 °F 29.78 in SE 9.0 mph 19.0 mph 59 % 0.00 in
18:43 82.9 °F 67.6 °F 29.78 in SSE 7.0 mph 20.0 mph 60 % 0.00 in
18:48 82.9 °F 67.6 °F 29.78 in SE 8.0 mph 20.0 mph 60 % 0.00 in
18:53 82.8 °F 68.0 °F 29.78 in ESE 12.0 mph 20.0 mph 61 % 0.00 in
18:58 82.6 °F 67.8 °F 29.78 in SSE 7.0 mph 16.0 mph 61 % 0.00 in
19:03 82.0 °F 67.6 °F 29.78 in ESE 6.0 mph 16.0 mph 62 % 0.00 in
19:08 81.9 °F 68.0 °F 29.77 in SE 9.0 mph 17.0 mph 63 % 0.00 in
19:13 81.3 °F 68.0 °F 29.77 in ESE 12.0 mph 17.0 mph 64 % 0.00 in
19:19 81.1 °F 67.8 °F 29.77 in SE 13.0 mph 17.0 mph 64 % 0.00 in
19:24 81.0 °F 68.0 °F 29.77 in SSE 8.0 mph 16.0 mph 65 % 0.00 in
19:29 80.8 °F 68.0 °F 29.77 in SSE 11.0 mph 17.0 mph 65 % 0.00 in
19:34 80.2 °F 68.4 °F 29.78 in ESE 10.0 mph 21.0 mph 67 % 0.00 in
19:39 79.9 °F 68.4 °F 29.78 in SSE 7.0 mph 21.0 mph 68 % 0.00 in
19:44 79.7 °F 68.2 °F 29.78 in SE 4.0 mph 21.0 mph 68 % 0.00 in
19:49 79.5 °F 68.5 °F 29.78 in SE 5.0 mph 16.0 mph 69 % 0.00 in
19:54 79.3 °F 68.4 °F 29.78 in ESE 8.0 mph 13.0 mph 69 % 0.00 in
19:59 79.0 °F 68.0 °F 29.78 in SE 5.0 mph 13.0 mph 69 % 0.00 in
20:04 78.8 °F 67.8 °F 29.78 in ESE 5.0 mph 13.0 mph 69 % 0.00 in
20:09 78.6 °F 67.6 °F 29.78 in SE 8.0 mph 13.0 mph 69 % 0.00 in
20:14 78.6 °F 67.1 °F 29.78 in East 17.0 mph 17.0 mph 68 % 0.00 in
20:19 78.4 °F 66.9 °F 29.78 in South 15.0 mph 19.0 mph 68 % 0.00 in
20:24 78.4 °F 66.9 °F 29.78 in SSE 14.0 mph 19.0 mph 68 % 0.00 in
20:29 78.3 °F 67.3 °F 29.78 in South 4.0 mph 19.0 mph 69 % 0.00 in
20:34 78.1 °F 67.1 °F 29.78 in SSE 11.0 mph 18.0 mph 69 % 0.00 in
20:39 78.1 °F 67.5 °F 29.78 in South 6.0 mph 18.0 mph 70 % 0.00 in
20:44 77.9 °F 67.8 °F 29.78 in South 4.0 mph 18.0 mph 71 % 0.00 in
20:49 77.9 °F 68.2 °F 29.78 in ESE 11.0 mph 18.0 mph 72 % 0.00 in
20:54 77.7 °F 68.0 °F 29.78 in ESE 7.0 mph 15.0 mph 72 % 0.00 in
20:59 77.5 °F 68.2 °F 29.78 in SSE 3.0 mph 12.0 mph 73 % 0.00 in
21:04 77.5 °F 68.2 °F 29.78 in SE 8.0 mph 12.0 mph 73 % 0.00 in
21:09 77.5 °F 67.8 °F 29.78 in SE 11.0 mph 16.0 mph 72 % 0.00 in
21:14 77.4 °F 67.6 °F 29.78 in ESE 11.0 mph 19.0 mph 72 % 0.00 in
21:19 77.4 °F 67.6 °F 29.78 in SE 8.0 mph 19.0 mph 72 % 0.00 in
21:24 77.2 °F 67.5 °F 29.78 in SE 10.0 mph 19.0 mph 72 % 0.00 in
21:29 77.2 °F 67.5 °F 29.78 in South 5.0 mph 18.0 mph 72 % 0.00 in
21:34 77.2 °F 67.8 °F 29.79 in SE 6.0 mph 15.0 mph 73 % 0.00 in
21:39 77.0 °F 67.6 °F 29.79 in SE 6.0 mph 14.0 mph 73 % 0.00 in
21:44 76.8 °F 67.8 °F 29.79 in ESE 10.0 mph 14.0 mph 74 % 0.00 in
21:49 76.8 °F 67.8 °F 29.79 in SE 6.0 mph 15.0 mph 74 % 0.00 in
21:54 76.6 °F 67.6 °F 29.79 in SE 4.0 mph 15.0 mph 74 % 0.00 in
21:55 76.6 °F 67.6 °F 29.79 in SE 5.0 mph 15.0 mph 74 % 0.00 in
22:00 76.6 °F 67.6 °F 29.79 in SSE 6.0 mph 13.0 mph 74 % 0.00 in
22:05 76.6 °F 68.2 °F 29.79 in ESE 8.0 mph 13.0 mph 75 % 0.00 in
22:10 76.5 °F 68.0 °F 29.79 in South 5.0 mph 13.0 mph 75 % 0.00 in
22:15 76.5 °F 68.0 °F 29.79 in SSE 8.0 mph 13.0 mph 75 % 0.00 in
22:20 76.5 °F 68.0 °F 29.79 in SSE 5.0 mph 15.0 mph 75 % 0.00 in
22:25 76.5 °F 68.4 °F 29.79 in SSE 10.0 mph 15.0 mph 76 % 0.00 in
22:30 76.5 °F 68.4 °F 29.79 in ESE 10.0 mph 15.0 mph 76 % 0.00 in
22:35 76.3 °F 68.5 °F 29.79 in ESE 6.0 mph 15.0 mph 77 % 0.00 in
22:40 76.3 °F 68.5 °F 29.79 in ESE 5.0 mph 15.0 mph 77 % 0.00 in
22:45 76.3 °F 68.5 °F 29.79 in SE 3.0 mph 15.0 mph 77 % 0.00 in
22:50 76.1 °F 68.4 °F 29.79 in SE 5.0 mph 15.0 mph 77 % 0.00 in
22:55 75.9 °F 68.5 °F 29.79 in ESE 6.0 mph 15.0 mph 78 % 0.00 in
23:00 75.9 °F 68.5 °F 29.79 in SE 4.0 mph 15.0 mph 78 % 0.00 in
23:05 75.9 °F 68.9 °F 29.78 in SSE 4.0 mph 15.0 mph 79 % 0.00 in
23:10 75.7 °F 68.7 °F 29.78 in ESE 10.0 mph 12.0 mph 79 % 0.00 in
23:15 75.9 °F 69.3 °F 29.78 in SE 8.0 mph 14.0 mph 80 % 0.00 in
23:20 75.9 °F 69.3 °F 29.78 in East 9.0 mph 14.0 mph 80 % 0.00 in
23:25 75.9 °F 69.3 °F 29.78 in SE 7.0 mph 14.0 mph 80 % 0.00 in
23:30 75.9 °F 69.3 °F 29.77 in SSE 4.0 mph 13.0 mph 80 % 0.00 in
23:35 75.9 °F 69.3 °F 29.77 in ESE 6.0 mph 17.0 mph 80 % 0.00 in
23:40 75.9 °F 69.3 °F 29.78 in SE 11.0 mph 17.0 mph 80 % 0.00 in
23:45 75.9 °F 69.3 °F 29.78 in South 12.0 mph 17.0 mph 80 % 0.00 in
23:50 75.9 °F 69.3 °F 29.77 in SE 6.0 mph 15.0 mph 80 % 0.00 in
23:55 75.9 °F 69.3 °F 29.77 in SSE 8.0 mph 15.0 mph 80 % 0.00 in
Spring, Texas: Villages of Bridgestone
Compliments of Weather Underground - 3 mb

Script developed by  Jim McMurry - jmcmurry@mwt.net Adapted for the template by  Wim van der Kuil - Leuven-Template.eu

You find our weather info also at:

UK Metoffice

WeatherCloud

Weather Underground

Mid-South Weather Network

AWEKAS

Citizen Weather Observer Program (CWOP)

HAMweather, WeatherForYou, PWS Weather

Equipment we use:

Weather-station
Davis Vantage Vue

Weather-program
Meteohub

Weather-server
Debian 7.9 x86 (Guest)

Provider
DreamHost

Davis Vantage Vue

Meteohub

Debian 7.9 x86 (Guest)

DreamHost